User: anonymous   Login
Location: Unspecified
(0.0000°N, 0.0000°E)
Time: 04:03:17
(UTC+00:00)
Language:

SO-67 - Orbit

View from above orbital plane
View from above orbital plane
View from above satellite
View from above satellite

Ground track
Ground track

The orbit data is extracted from the following two-line orbital elements,

1 35870U 09049F   16119.89555823  .00006947  00000-0  13438-3 0  9996
2 35870  97.1216 135.4632 0002841 103.6132  15.2357 15.48058744369014
Epoch (UTC): 28 April 2016 21:29:36
Eccentricity: 0.0002841
inclination: 97.1216°
perigee height: 420 km
apogee height: 424 km
right ascension of ascending node: 135.4632°
argument of perigee: 103.6132°
revolutions per day: 15.48058744
mean anomaly at epoch: 15.2357°
orbit number at epoch: 36901

The dashed part of the orbit path shows where the satellite is in the earth's shadow,  

DLR